K4FB Weather Reports


time (UTC)temp
C
wind
direction
speed
KPH
gust
KPH
rain 1hr
cm
rain 24hr
cm
rain mn
cm
humidity
%
barometer
mb
20260504050507 19 26 1.6 4.8 0.00 0.20 0.00 79 1017.8
20260504050022 20 19 1.6 4.8 0.00 0.20 0.00 79 1017.8
20260504045504 20 42 1.6 4.8 0.00 0.20 0.00 79 1017.9
20260504045006 20 24 0.0 4.8 0.00 0.23 0.00 79 1018.0
20260504044527 20 352 0.0 6.4 0.00 0.23 0.00 79 1018.0
20260504044003 20 14 1.6 6.4 0.00 0.23 0.00 78 1018.0
20260504043503 20 44 1.6 4.8 0.00 0.23 0.00 78 1017.9
20260504043008 20 22 1.6 4.8 0.00 0.23 0.00 78 1018.1
20260504042504 20 352 1.6 6.4 0.00 0.23 0.00 78 1018.2
20260504042004 20 20 1.6 8.0 0.00 0.25 0.00 78 1018.3
20260504041516 20 5 3.2 8.0 0.00 0.25 0.00 77 1018.4
20260504041007 20 49 1.6 6.4 0.00 0.28 0.00 77 1018.3
20260504040507 20 46 1.6 6.4 0.00 0.28 0.00 77 1018.3
20260504040017 20 25 1.6 6.4 0.00 0.30 0.00 77 1018.1
20260504035510 20 59 0.0 3.2 0.00 0.30 0.30 76 1018.2
20260504035007 20 74 0.0 9.7 0.00 0.30 0.30 76 1018.3
20260504034510 20 78 3.2 12.9 0.00 0.30 0.30 76 1018.2
20260504034007 20 45 1.6 12.9 0.00 0.30 0.30 76 1018.2
20260504033507 20 71 3.2 12.9 0.00 0.30 0.30 76 1018.3
20260504033011 21 42 4.8 8.0 0.00 0.30 0.30 76 1018.2
20260504032503 21 16 0.0 9.7 0.00 0.30 0.30 76 1018.2
20260504032006 21 49 4.8 11.3 0.00 0.30 0.30 76 1018.1
20260504031514 21 55 3.2 11.3 0.00 0.30 0.30 76 1018.1
20260504031003 21 20 3.2 9.7 0.00 0.30 0.30 76 1018.1
20260504030507 21 34 0.0 6.4 0.00 0.30 0.30 76 1018.2
20260504030021 21 51 3.2 11.3 0.00 0.30 0.30 75 1018.1
20260504025507 21 13 3.2 12.9 0.00 0.30 0.30 76 1018.1
20260504025003 21 64 3.2 12.9 0.00 0.30 0.30 75 1018.3
20260504024520 21 29 6.4 12.9 0.00 0.30 0.30 76 1018.2
20260504024007 21 76 1.6 14.5 0.00 0.30 0.30 76 1018.1
20260504023504 21 73 3.2 14.5 0.00 0.30 0.30 75 1018.0
20260504023017 21 63 4.8 16.1 0.00 0.30 0.30 75 1018.1
20260504022509 21 71 4.8 16.1 0.00 0.30 0.30 75 1018.0
20260504022010 21 41 8.0 17.7 0.00 0.30 0.30 75 1017.9
20260504021508 21 42 4.8 17.7 0.00 0.30 0.30 75 1017.9
20260504021004 21 81 4.8 14.5 0.00 0.30 0.30 75 1017.8
20260504020503 21 82 6.4 14.5 0.00 0.30 0.30 75 1017.7
20260504020014 21 86 3.2 14.5 0.00 0.30 0.30 75 1017.7
20260504015506 21 76 3.2 14.5 0.00 0.30 0.30 75 1017.7
20260504015007 21 37 6.4 14.5 0.00 0.30 0.30 74 1017.6
20260504014522 21 20 4.8 16.1 0.00 0.30 0.30 74 1017.6
20260504014003 21 90 3.2 24.1 0.00 0.30 0.30 74 1017.8
20260504013506 21 349 4.8 24.1 0.00 0.30 0.30 73 1017.8
20260504013033 21 35 4.8 14.5 0.00 0.30 0.30 74 1017.6
20260504012510 21 76 4.8 14.5 0.00 0.30 0.30 73 1017.6
20260504012004 21 77 6.4 16.1 0.00 0.30 0.30 73 1017.4
20260504011523 21 21 4.8 16.1 0.00 0.30 0.30 73 1017.4
20260504011009 21 71 4.8 20.9 0.00 0.30 0.30 72 1017.5
20260504010503 21 80 4.8 20.9 0.00 0.30 0.30 72 1017.4
20260504010015 21 78 9.7 20.9 0.00 0.30 0.30 72 1017.4
20260504005504 21 63 6.4 17.7 0.00 0.30 0.30 72 1017.3
20260504005008 21 98 6.4 17.7 0.00 0.30 0.30 72 1017.1
20260504004515 21 78 8.0 17.7 0.00 0.30 0.30 71 1017.1
20260504004009 21 107 3.2 17.7 0.00 0.30 0.30 71 1017.1
20260504003510 22 61 6.4 17.7 0.00 0.30 0.30 72 1016.8
20260504003013 22 90 6.4 17.7 0.00 0.30 0.30 72 1016.8
20260504002508 22 72 4.8 14.5 0.00 0.30 0.30 73 1016.8
20260504002010 22 71 6.4 14.5 0.00 0.30 0.30 75 1016.8
20260504001528 22 73 4.8 16.1 0.00 0.30 0.30 72 1016.8
20260504001004 22 59 8.0 16.1 0.00 0.30 0.30 72 1016.7
20260504000506 22 32 6.4 16.1 0.00 0.30 0.30 71 1016.8
20260504000051 22 94 3.2 12.9 0.00 0.30 0.30 71 1016.6
20260503235512 23 49 4.8 16.1 0.00 0.30 0.30 71 1016.6
20260503235004 23 35 8.0 17.7 0.00 0.30 0.30 69 1016.6
20260503234516 23 55 8.0 17.7 0.00 0.30 0.30 70 1016.4
20260503234007 23 82 6.4 17.7 0.00 0.30 0.30 69 1016.4
20260503233505 23 55 6.4 19.3 0.00 0.30 0.30 69 1016.5
20260503233020 23 111 8.0 22.5 0.00 0.30 0.30 67 1016.5
20260503232511 23 76 9.7 22.5 0.00 0.30 0.30 67 1016.4
20260503232008 23 63 9.7 20.9 0.00 0.33 0.30 67 1016.3
20260503231518 24 104 11.3 20.9 0.00 0.33 0.30 67 1016.4
20260503231010 24 42 9.7 17.7 0.00 0.33 0.30 65 1016.3
20260503230511 24 46 4.8 17.7 0.00 0.36 0.30 66 1016.4
20260503230018 24 96 6.4 17.7 0.00 0.36 0.30 65 1016.4
20260503225509 24 53 6.4 17.7 0.00 0.36 0.30 66 1016.4
20260503225009 24 79 4.8 16.1 0.00 0.36 0.30 66 1016.2
20260503224529 24 81 4.8 16.1 0.00 0.38 0.30 66 1016.3
20260503224009 24 49 6.4 16.1 0.00 0.38 0.30 65 1016.3
20260503223504 24 34 6.4 16.1 0.00 0.41 0.30 64 1016.5
20260503223022 24 45 4.8 14.5 0.00 0.41 0.30 64 1016.4
20260503222503 25 96 3.2 16.1 0.00 0.41 0.30 66 1016.4
20260503222006 25 125 4.8 16.1 0.00 0.41 0.30 65 1016.3
20260503221524 25 71 3.2 16.1 0.00 0.41 0.30 64 1016.2
20260503221014 25 89 9.7 16.1 0.00 0.41 0.30 64 1016.4
20260503220506 25 86 6.4 14.5 0.00 0.41 0.30 63 1016.2
20260503220025 25 54 3.2 14.5 0.00 0.41 0.30 64 1016.3
20260503215512 25 42 4.8 14.5 0.00 0.41 0.30 64 1016.3
20260503215008 25 70 6.4 17.7 0.00 0.41 0.30 63 1016.2
20260503214523 25 69 8.0 17.7 0.00 0.41 0.30 60 1016.2
20260503214010 25 67 6.4 17.7 0.00 0.41 0.30 64 1016.2
20260503213514 25 28 8.0 16.1 0.00 0.41 0.30 62 1016.1
20260503213021 25 57 4.8 19.3 0.00 0.41 0.30 61 1016.2
20260503212506 26 72 9.7 19.3 0.00 0.41 0.30 60 1016.1
20260503212005 26 35 8.0 16.1 0.00 0.41 0.30 63 1016.2
20260503211521 26 86 6.4 17.7 0.00 0.41 0.30 62 1016.2
20260503211006 26 89 8.0 17.7 0.00 0.41 0.30 60 1016.3
20260503210514 26 74 3.2 17.7 0.00 0.41 0.30 61 1016.1
20260503210023 26 38 11.3 17.7 0.00 0.41 0.30 60 1016.3
20260503205508 26 40 8.0 17.7 0.00 0.43 0.30 61 1016.4
20260503205008 27 26 6.4 17.7 0.00 0.43 0.30 58 1016.4
20260503204528 27 72 6.4 17.7 0.00 0.43 0.30 59 1016.3
20260503204009 27 22 6.4 14.5 0.00 0.46 0.30 59 1016.4
20260503203509 27 103 8.0 16.1 0.00 0.53 0.30 59 1016.6
20260503203039 27 89 8.0 17.7 0.00 0.53 0.30 59 1016.6
20260503202511 26 117 9.7 17.7 0.00 0.53 0.30 61 1016.5
20260503202010 26 74 4.8 16.1 0.00 0.53 0.30 64 1016.5
20260503201517 26 46 6.4 19.3 0.00 0.53 0.30 60 1016.6
20260503201006 26 44 6.4 19.3 0.00 0.53 0.30 60 1016.7
20260503200507 26 57 4.8 16.1 0.00 0.53 0.30 61 1016.6
20260503200024 26 12 9.7 16.1 0.00 0.53 0.30 64 1016.8
20260503195508 25 56 6.4 17.7 0.00 0.53 0.30 63 1016.9
20260503195009 25 58 6.4 17.7 0.00 0.53 0.30 63 1016.8
20260503194519 25 107 6.4 17.7 0.00 0.53 0.30 63 1016.9
20260503194009 26 45 9.7 19.3 0.00 0.53 0.30 63 1016.9
20260503193511 26 69 9.7 24.1 0.00 0.53 0.30 63 1017.0
20260503193028 26 51 11.3 24.1 0.00 0.53 0.30 61 1017.2
20260503192507 26 31 8.0 20.9 0.00 0.53 0.30 62 1017.3
20260503192010 26 77 8.0 20.9 0.00 0.53 0.30 63 1017.4
20260503191529 26 27 11.3 22.5 0.00 0.53 0.30 62 1017.3
20260503191010 27 76 4.8 22.5 0.00 0.53 0.30 60 1017.5
20260503190515 27 50 6.4 19.3 0.00 0.53 0.30 62 1017.6
20260503190021 26 70 9.7 22.5 0.00 0.53 0.30 63 1017.6
20260503185507 26 71 4.8 22.5 0.00 0.53 0.30 64 1017.8
20260503185011 26 87 8.0 20.9 0.00 0.53 0.30 65 1017.8
20260503184526 26 32 3.2 19.3 0.00 0.53 0.30 66 1017.9
20260503184012 26 9 6.4 20.9 0.00 0.53 0.30 64 1017.9
20260503183511 26 45 11.3 20.9 0.00 0.53 0.30 61 1018.0
20260503183029 26 117 6.4 22.5 0.00 0.53 0.30 65 1018.1
20260503182516 26 29 9.7 24.1 0.00 0.53 0.30 67 1018.1
20260503182012 25 105 12.9 24.1 0.00 0.53 0.30 67 1018.1
20260503181527 25 57 9.7 19.3 0.00 0.53 0.30 65 1018.1
20260503181010 25 62 9.7 24.1 0.00 0.53 0.30 66 1018.4
20260503180510 25 130 9.7 24.1 0.00 0.53 0.30 64 1018.4
20260503180031 25 48 4.8 20.9 0.00 0.53 0.30 67 1018.5
20260503175507 25 42 11.3 20.9 0.00 0.53 0.30 65 1018.6
20260503175007 25 81 8.0 22.5 0.00 0.53 0.30 64 1018.5
20260503174521 25 24 9.7 22.5 0.00 0.53 0.30 66 1018.7
20260503174010 25 24 11.3 22.5 0.00 0.53 0.30 67 1018.6
20260503173040 25 61 4.8 22.5 0.00 0.53 0.30 68 1018.7
20260503172512 24 106 12.9 22.5 0.00 0.53 0.30 69 1018.8
20260503172010 24 30 6.4 22.5 0.00 0.53 0.30 72 1018.8
20260503171535 24 32 11.3 22.5 0.00 0.53 0.30 68 1018.7
20260503171003 24 43 6.4 20.9 0.00 0.53 0.30 71 1018.7
20260503170506 24 34 11.3 25.7 0.00 0.53 0.30 69 1018.7
20260503151007 20 53 9.7 17.7 0.00 0.53 0.30 81 1019.2
20260503150503 20 48 8.0 20.9 0.00 0.53 0.30 82 1019.4
20260503131009 18 21 6.4 19.3 0.00 0.53 0.30 89 1017.8
20260503130505 18 11 9.7 19.3 0.00 0.53 0.30 89 1017.9
20260503110508 17 352 3.2 14.5 0.00 0.53 0.30 94 1016.6
20260503090503 17 352 8.0 16.1 0.10 0.53 0.30 94 1015.9
20260503081518 18 352 4.8 14.5 0.03 0.43 0.20 93 1015.7
20260503071510 18 21 8.0 14.5 0.03 0.41 0.18 93 1015.5
20260503070503 18 346 6.4 17.7 0.05 0.41 0.18 93 1015.5